This demonstration page uses our WeatherBlox Daily Observations layout. Learn more.

Left ArrowRight Arrow

Hourly Observations for August 19, 2022

Temp ( °F °C ) Dew Point ( °F °C ) Humidity (%) Winds ( mph kmh ) Pressure ( in mb ) Visibility ( mi km ) Precip ( " mm )
12:53 am 00:53 Clear 66 18.9 43 6.1 43 43 ENE 8 13 30.04 1017 10 16 0.00 0.00
1:53 am 01:53 Clear 62 16.7 44 6.7 52 52 ENE 9 15 30.03 1017 10 16 0.00 0.00
2:53 am 02:53 Clear 62 16.7 44 6.7 52 52 ENE 9 15 30.03 1017 10 16 0.00 0.00
3:53 am 03:53 Clear 58 14.4 42 5.6 55 55 Calm 30.03 1017 10 16 0.00 0.00
4:53 am 04:53 Clear 59 15 43 6.1 55 55 E 3 6 30.03 1017 10 16 0.00 0.00
5:53 am 05:53 Clear 56 13.3 43 6.1 62 62 ENE 6 9 30.03 1017 10 16 0.00 0.00
6:53 am 06:53 Sunny 58 14.4 43 6.1 57 57 E 3 6 30.04 1017 10 16 0.00 0.00
7:53 am 07:53 Sunny 63 17.2 44 6.7 50 50 E 5 7 30.04 1017 10 16 0.00 0.00
8:53 am 08:53 Sunny 70 21.1 45 7.2 41 41 E 6 9 30.04 1017 10 16 0.00 0.00
9:53 am 09:53 Sunny 80 26.7 46 7.8 30 30 E 8 13 30.03 1017 10 16 0.00 0.00
10:53 am 10:53 Sunny 85 29.4 46 7.8 26 26 ENE 13 20 30.01 1016 10 16 0.00 0.00
11:53 am 11:53 Sunny 87 30.6 41 5 20 20 E 12 19 29.98 1015 10 16 0.00 0.00
12:53 pm 12:53 Sunny 89 31.7 41 5 19 19 ESE 10 17 29.97 1015 10 16 0.00 0.00
1:53 pm 13:53 Sunny 91 32.8 40 4.4 17 17 E 16 26 29.96 1014 10 16 0.00 0.00
2:53 pm 14:53 Sunny 91 32.8 39 3.9 16 16 E 8 13 29.94 1014 10 16 0.00 0.00
3:53 pm 15:53 Sunny 92 33.3 41 5 17 17 ESE 15 24 29.93 1013 10 16 0.00 0.00
4:53 pm 16:53 Sunny 92 33.3 40 4.4 16 16 E 14 22 29.91 1013 10 16 0.00 0.00
5:53 pm 17:53 Sunny 91 32.8 39 3.9 16 16 E 12 19 29.90 1013 10 16 0.00 0.00
6:53 pm 18:53 Sunny 89 31.7 37 2.8 16 16 ESE 10 17 29.89 1012 10 16 0.00 0.00
7:53 pm 19:53 Sunny 85 29.4 39 3.9 20 20 E 15 24 29.90 1012 10 16 0.00 0.00
8:53 pm 20:53 Clear 79 26.1 40 4.4 25 25 E 12 19 29.90 1013 10 16 0.00 0.00
9:53 pm 21:53 Clear 77 25 40 4.4 26 26 E 14 22 29.90 1013 10 16 0.00 0.00
10:53 pm 22:53 Clear 73 22.8 40 4.4 30 30 E 12 19 29.90 1013 10 16 0.00 0.00
11:53 pm 23:53 Clear 73 22.8 40 4.4 30 30 E 12 19 29.91 1013 10 16 0.00 0.00

Powered by AerisWeather